www.pogodaiklimat.ru

Погода и климат >> Архив погоды >> Туркменистан >> Атамурат


ПОГОДА в Атамурате

  • Прогноз погоды в Атамурате
  • Монитор погоды в Атамурате

АРХИВ ПОГОДЫ в Атамурате

Время (UTC), дата Ветер
(напр.,м/с)
 
Видим.   Явления Облачность Т
(С)
Тd
(С)
f
(%)
Тe
(С)
Тes
(С)
Комфортность P
(гПа)
Po
(гПа)
Тmin
(С)
Tmax
(С)
R
(мм)
R24
(мм)
S
(см)
21 16.09 СВ 2 10 км ясно +17.2 +6.7 50 +18 +18 1018.9 990.4
00 17.09 штиль 0 10 км ясно +13.4 +6.1 61 +13 +13 1018.8 989.9
03 17.09 С 1 20 км ясно +14.6 +6.8 59 +15 +17 1019.6 990.9 +12.4
06 17.09 В 1 20 км ясно +24.6 +11.3 43 +26 +40 жарко 1018.8 991.0 +12.4
09 17.09 ЮВ 2 20 км ясно +28.2 +9.8 32 +28 +41 жарко 1016.6 989.3
12 17.09 штиль 0 20 км ясно +30.0 +10.2 29 +30 +33 жарко 1013.8 986.7
15 17.09 С 2 10 км ясно +23.8 +11.1 45 +25 +25 комфорт 1013.6 985.9 +30.6
18 17.09 СВ 3 10 км ясно +21.2 +8.8 45 +22 +22 комфорт 1014.1 986.1 +30.6
21 17.09 СВ 3 10 км ясно +18.6 +7.4 48 +19 +19 1013.5 985.3
00 18.09 СВ 4 10 км ясно +16.2 +6.4 52 +16 +16 1013.1 984.6
03 18.09 ЮВ 1 20 км ясно +14.3 +7.1 62 +15 +17 1013.9 985.2 +13.4
06 18.09 Ю 3 20 км ясно +28.0 +12.9 39 +29 +39 жарко 1012.7 985.5 +13.4
09 18.09 ЮВ 4 20 км ясно +32.1 +13.6 33 +33 +42 жарко 1011.1 984.3
12 18.09 ЮВ 2 20 км ясно +33.6 +13.8 30 +35 +37 душно 1009.6 983.0
15 18.09 С 2 10 км ясно +26.6 +13.8 45 +29 +29 жарко 1012.2 984.8 +34.1
18 18.09 В 3 10 км ясно +23.4 +12.2 49 +26 +26 жарко 1012.7 985.0 +34.1
21 18.09 С 2 10 км ясно +20.6 +8.6 46 +23 +23 комфорт 1013.3 985.3
00 19.09 СВ 3 10 км ясно +19.0 +10.0 56 +20 +20 1013.4 985.2
03 19.09 штиль 0 20 км 3/0
[Ci sp]
+18.6 +9.0 54 +19 +21 1014.6 986.4 +17.2
06 19.09 Ю 2 20 км ясно +30.0 +15.7 42 +33 +44 душно 1015.1 988.0 +17.2
09 19.09 ЮВ 2 20 км ясно +34.2 +14.2 30 +35 +47 очень
жарко
1013.0 986.3
12 19.09 С 2 20 км ясно +35.0 +13.1 27 +35 +38 очень
жарко
1011.8 985.2
15 19.09 С 2 10 км ясно +28.8 +14.7 42 +31 +31 жарко 1012.4 985.3 +35.5
18 19.09 СВ 2 10 км ясно +25.0 +12.3 45 +27 +27 жарко 1012.7 985.2 +35.5
21 19.09 С 3 10 км ясно +21.3 +11.0 52 +23 +23 комфорт 1012.1 984.3
00 20.09 С 2 10 км ясно +19.0 +10.3 57 +20 +20 1012.1 984.0
03 20.09 С 2 20 км ясно +19.0 +11.5 62 +20 +22 1013.4 985.3 +17.3
06 20.09 ЮЗ 1 20 км ясно +30.2 +14.9 39 +32 +45 жарко 1012.4 985.3 +17.3
09 20.09 С 3 20 км ясно +34.6 +16.6 34 +37 +47 очень
душно
1011.3 984.7
12 20.09 С 5 20 км ясно +35.6 +15.5 30 +37 +39 душно 1010.0 989.6
15 20.09 СЗ 4 10 км ясно +29.2 +14.3 40 +31 +31 жарко 1010.7 983.6 +35.8
18 20.09 С 2 10 км ясно +23.8 +11.9 47 +25 +25 комфорт 1011.8 984.2 +35.8
21 20.09 С 1 10 км ясно +20.4 +13.0 62 +24 +24 комфорт 1010.8 982.9
00 21.09 С 1 10 км ясно +18.2 +12.6 70 +20 +20 1010.6 982.5
03 21.09 штиль 0 20 км ясно +18.6 +12.1 66 +19 +21 1011.4 983.3 +16.4
06 21.09 ЮВ 3 20 км ясно +29.0 +17.1 49 +33 +42 очень
душно
1010.0 982.9 +16.4
09 21.09 ЮВ 3 20 км ясно +35.2 +15.1 30 +37 +47 очень
душно
1007.4 980.9
12 21.09 штиль 0 20 км ясно +35.4 +12.6 25 +35 +38 очень
жарко
1005.8 979.3
15 21.09 штиль 0 10 км ясно +28.6 +13.0 38 +30 +30 жарко 1005.5 978.5 +36.2
18 21.09 В 4 10 км ясно +24.7 +13.1 48 +27 +27 жарко 1006.3 979.0 +36.2
21 21.09 В 4 10 км ясно +21.8 +9.8 46 +23 +23 комфорт 1006.7 979.0
00 22.09 ЮВ 3 10 км ясно +19.5 +11.3 59 +21 +21 комфорт 1006.1 978.3
03 22.09 Ю 3 20 км ясно +19.0 +10.0 56 +20 +21 1007.4 979.4 +18.1
06 22.09 Ю 3 20 км ясно +31.4 +16.9 42 +35 +44 очень
душно
1007.8 981.1 +18.1
09 22.09 ЮВ 4 20 км ясно +37.4 +15.8 28 +39 +47 очень
душно
1006.6 980.4
12 22.09 СЗ 2 20 км ясно +39.0 +11.8 20 +38 +41 очень
жарко
1006.8 980.7
15 22.09 СЗ 9 4000 м мгла ясно +29.4 +16.4 45 +33 +33 душно 1011.5 984.5 +40.0
18 22.09 С 9 10 км ясно +24.0 +12.3 48 +26 +26 жарко 1016.5 988.8 +40.0
21 22.09 С 8 10 км ясно +19.2 +10.3 56 +19 +19 1019.9 991.6
00 23.09 СЗ 8 10 км ясно +16.6 +8.9 60 +15 +15 1021.2 992.7
03 23.09 СЗ 5 20 км ясно +15.6 +8.2 61 +14 +15 1021.8 993.2 +15.0
06 23.09 СЗ 3 20 км ясно +20.6 +11.2 55 +23 +32 комфорт 1021.4 993.2 +15.0
09 23.09 С 5 20 км ясно +23.6 +12.2 49 +25 +32 комфорт 1018.3 990.5
12 23.09 С 2 20 км ясно +27.0 +13.2 43 +29 +31 жарко 1015.3 987.9
15 23.09 С 2 10 км ясно +24.0 +12.9 50 +26 +26 жарко 1014.5 986.9 +27.2
18 23.09 СЗ 2 10 км ясно +20.2 +12.4 61 +23 +23 комфорт 1014.6 986.6 +27.2

 

Местоположение метеостанции Атамурат (Лебапский велаят, Туркменистан): широта 37.83 долгота 65.20 высота над уровнем моря 240 м.

В архиве по умолчанию представлена погода в Атамурате за последнюю неделю. Архивные данные за месяц целиком и за предыдущие месяцы, начиная с января 2011 года, Вы можете получить, выбрав интересующий диапазон дат из раскрывающегося списка и нажав кнопку "Ввод!".


*Определитесь, кто Вы:
робот инопланетянин человек

Внимание! Время в таблицах - всемирное. Для получения местного времени необходимо прибавить поправку, которая равна 5 ч.

Смотрите также архив погоды в соседних городах и на ближайших метеорологических станциях:

Погода в Койтендаге (Дашогузский велаят, Туркменистан) (80 км)
Погода в Бурдалыке (Лебапский велаят, Туркменистан) (102 км)
Погода в Карши (Кашкадарьинская область, Узбекистан) (117 км)
Погода в Дехканабаде (Сырдарьинская область, Узбекистан) (128 км)
Погода в Гузаре (Кашкадарьинская область, Узбекистан) (128 км)
Погода в Акрабате (Узбекистан) (150 км)
Погода в Ширабаде (Сухрандарьинская область, Узбекистан) (161 км)
Погода в Минчукуре (Кашкадарьинская область, Узбекистан) (177 км)
Погода в Байсуне (Сухрандарьинская область, Узбекистан) (180 км)
Погода в Термезе (Сухрандарьинская область, Узбекистан) (194 км)

Пояснения к столбцам:

Ветер - указаны скорость ветра в м/с - средняя за 10 мин, порывы в срок и между сроками (в фигурных скобках) и направление, откуда дует ветер: С - северный, СВ - северо-восточный, В - восточный, ЮВ - юго-восточный, Ю - южный, ЮЗ - юго-западный, З - западный, СЗ - северо-западный.
Видимость - горизонтальная дальность видимости в метрах или километрах. При видимости от 1 до 10 км при отсутствии осадков обычно наблюдается дымка, при ухудшении видимости до 1 км и менее - туман. В сухую погоду видимость может ухудшаться дымом, пылью или мглою.
Явления - указаны атмосферные явления, наблюдавшиеся в срок или в последний час перед сроком; фигурными скобками обозначены явления, наблюдавшиеся между сроками (за 1-3 часа до срока); квадратными скобками обозначены град или гололедные отложения с указанием их диаметра в мм.
Облачность - указаны через наклонную черту общая и нижняя облачность в баллах и высота нижней границы облаков в метрах; квадратными скобками обозначены формы облаков: Ci - перистые, Cs - перисто-слоистые, Cc - перисто-кучевые, Ac - высококучевые, As - высокослоистые, Sc - слоисто-кучевые, Ns - слоисто-дождевые, Cu - кучевые, Cb - кучево-дождевые. Подробнее классификацию облаков см. в Атласе облаков (PDF).
T - Температура воздуха - температура, измеренная на высоте 2 м над землей.
Td - Температура точки росы - температура, при понижении до которой содержащийся в воздухе водяной пар достигнет насыщения.
f - Относительная влажность воздуха - влажноcть воздуха, измеренная на высоте 2 м над землей.
Te - Эффективная температура - температура, которую ощущает одетый по сезону человек в тени. Характеристика душности погоды. При расчете учитывается влияние влажности воздуха и скорости ветра на теплоощущения человека.
Tes - Эффективная температура на солнце - температура, которую ощущает человек, с поправкой на солнечный нагрев. Характеристика знойности погоды. Зависит от высоты солнца над горизонтом, облачности и скорости ветра. Ночью, в пасмурную погоду, а также при ветре 12 м/с и более поправка равна нулю.
P - Атмосферное давление - приведенное к уровню моря атмосферное давление.
Po - Атмосферное давление - измеренное на уровне метеостанции атмосферное давление.
Tmin - Минимальная температура - минимум температуры воздуха на высоте 2 м над землей.
Tmax - Максимальная температура - максимум температуры воздуха на высоте 2 м над землей.
R - Количество осадков - Количество выпавших осадков за период времени, мм. При наведении курсора мыши на число - период времени, за который выпало указанное количество осадков.
R24 - Количество осадков - Количество выпавших осадков за 24 часа, мм.
S - Снежный покров - Высота снежного покрова, см. При наведении курсора мыши на число - состояние снежного покрова и степень покрытия местности в баллах.